Find Starlink 37192

NORAD ID: 68342 Int'l Des: 2026-059 Owner: SPXS Country: US Constellation: starlink operational
LEOCIRCULAR

实时位置

正在加载3D地球...

关于 Starlink 37192

正在加载描述...

即将过境

Passes for default location (London). Set your location on the main map for personalized predictions.

高度历史

Loading altitude history...

两行轨道根数

1 68342U 26059X 26127.17303111 .00046429 00000-0 83700-3 0 9996
2 68342 53.1594 75.6456 0001336 64.8675 295.2473 15.49339330 7148
Epoch: May 7, 2026 • Age: 14 hours

当前状态

高度 418.9 km
速度 7.66 km/s
星下点 0.67°N, 63.57°W
发射日期 Mar 22, 2026
运行时间 0.1 years
类型 internet

技术详情

分类 Payload
质量 575.00 kg
干质量 530.00 kg
总质量 575.00 kg
长度 0.30 m
直径 4.10 m
跨度 29.00 m
形状 Box + pan
制造商 SPXS
平台类型 Starlink V2MO
阶段状态 In Orbit
所有者/国家 SPXS/US

Most Searched